{"data":{"norad_id":64025,"intl_designator":"2025-102D","name":"STARLINK-34088","alt_names":[],"object_type":"PAYLOAD","status":"ACTIVE","operator":null,"country":"US","launch_date":"2025-05-16","launch_site_code":"AFWTR","launch_vehicle":null,"mission":null,"orbit_class":"UNKNOWN","rcs_meters":null,"size_class":null,"mass_kg":null,"dimensions":null,"purposes":["comms"],"wikipedia_slug":null,"has_3d_model":false,"image_url":null,"decayed_at":null,"tle_current":{"epoch":"2026-05-25T02:21:04.694400Z","epoch_age_seconds":62542,"freshness":"FRESH","line1":"1 64025U 25102D   26145.09797100  .00004163  00000+0  35642-3 0  9994","line2":"2 64025  70.0008 281.9468 0003147 267.6955  92.3844 14.98335171 57405","mean_motion":14.98335171,"eccentricity":0.0003147,"inclination_deg":70.0008,"raan_deg":281.9468,"arg_perigee_deg":267.6955,"mean_anomaly_deg":92.3844,"bstar":0.00035642,"rev_number":5740,"period_min":96.106667444704,"perigee_km":569.852679429,"apogee_km":574.22712076992,"semimajor_km":6950.1769000995,"source":"CELESTRAK","updated_at":"2026-05-25T13:38:20.224701Z"}}}